[[{"header":{"parameterUnit":"m.s-1","parameterCategory":1,"la1":30.2991,"la2":30.254,"lo1":-89.0895,"lo2":-89.0444,"dx":0.0017,"dy":0.0017,"nx":28,"ny":28,"refTime":"2022-12-16T15:00:00:Z","depth":0,"parameterNumber":2,"parameterNumberName":"U-component_of_WINDS"},"data":[0,0,0,0,0,0,0,0,0,0,0,0,0,0,0,0,0,0,0,0,0,0,0,0,0,0,0,0,0,0,0,0,0,0,0,0,0,0,0,0,0,0,0,0,0,0,0,0,0,0,0,0,0,0,0,0,0,0,1.3911,1.3911,0,1.3903,1.3903,1.3903,1.3882,1.3881,1.3881,1.388,1.3871,1.3872,1.3872,0,0,0,0,0,0,0,0,0,0,0,0,0,1.3907,1.3908,1.3911,1.3911,1.3911,1.3903,1.3903,1.3903,1.3882,1.3881,1.3881,1.388,1.3871,1.3871,1.3872,0,0,0,0,0,0,0,0,0,0,0,0,0,1.3905,1.3908,1.3911,1.3899,1.3898,1.3903,1.3903,1.3903,1.3882,1.3881,1.388,1.388,1.3871,1.3871,1.3872,1.3887,0,0,1.3873,1.3873,0,0,0,0,0,0,0,0,1.3905,1.3905,1.3901,1.39,1.3899,1.3893,1.3898,1.3898,1.3882,1.3888,1.388,1.3879,1.3879,1.3879,1.3879,1.3887,1.3886,1.3873,1.3873,1.3873,1.3873,0,0,0,0,0,0,0,1.3906,1.3906,1.3908,1.3901,1.39,1.3894,1.3893,1.3898,1.3887,1.3887,1.3886,1.3885,1.3878,1.3878,1.3878,1.3886,1.3873,1.3873,1.3873,1.3873,1.3907,1.3908,0,0,0,0,0,0,1.3907,1.3906,1.3908,1.3908,1.3901,1.3895,1.3894,1.3895,1.3887,1.3885,1.3886,1.3884,1.3878,1.3878,1.3878,1.3895,1.3873,1.3873,1.3873,1.3906,1.3907,1.3908,0,0,0,0,0,0,1.3907,1.3908,1.3908,1.3906,1.3906,1.3896,1.3898,1.3895,1.3896,1.3886,1.3884,1.3888,1.3878,1.3877,1.3885,1.3894,1.3873,1.3874,1.3906,1.3907,1.3908,1.393,0,0,0,0,0,0,1.3907,1.3908,1.3914,1.3907,1.3906,1.3916,1.3898,1.3896,1.3896,1.3894,1.3887,1.3886,1.3877,1.3885,1.3885,1.3894,1.3874,1.3905,1.3906,1.3907,1.3928,1.3932,1.3935,0,0,0,0,0,1.3907,1.392,1.3914,1.3914,1.3913,1.3916,1.3916,1.3906,1.3897,1.3903,1.3897,1.3886,1.3894,1.3886,1.3886,1.3896,1.3904,1.3906,1.3907,1.3927,1.3931,1.3935,0,0,0,0,0,0,1.3928,1.3919,1.3912,1.3923,1.3921,1.3913,1.3919,1.3911,1.3911,1.3909,1.3896,1.3895,1.3904,1.3901,1.3892,1.391,1.3897,1.3899,1.3912,1.3916,1.3919,1.3919,1.3874,0,0,0,0,0,1.3934,1.3937,1.3929,1.3939,1.3939,1.3929,1.3931,1.3923,1.392,1.3919,1.3914,1.3911,1.3913,1.3914,1.3916,1.3928,1.3926,1.3935,1.3938,1.3941,1.3942,1.3949,1.3952,1.3914,1.3913,1.3913,0,0,1.3945,1.3941,1.3944,1.3943,1.3941,1.3945,1.3929,1.3933,1.3936,1.392,1.3926,1.3923,1.3919,1.393,1.3934,1.3927,1.3953,1.3943,1.3945,1.3945,1.3951,1.3954,1.3958,1.3915,1.3914,1.3914,0,0,1.3968,1.3966,1.3974,1.3972,1.3969,1.3963,1.3965,1.3959,1.3956,1.3963,1.3951,1.3954,1.3957,1.3955,1.3955,1.3979,1.3969,1.398,1.3996,1.4002,1.4005,1.4008,1.4016,1.4019,1.3982,1.3982,1.3982,0,1.3983,1.3989,1.3979,1.3985,1.3985,1.3971,1.3979,1.3978,1.3975,1.3976,1.3968,1.3973,1.397,1.3979,1.3985,1.3986,1.3987,1.398,1.4006,1.4008,1.401,1.4018,1.4021,1.3983,1.3983,1.3983,1.3982,0,1.4007,1.4011,1.4018,1.4016,1.4017,1.4024,1.4016,1.4018,1.4012,1.4006,1.4014,1.401,1.401,1.4012,1.4005,1.4021,1.4017,1.4008,1.3994,1.4016,1.4022,1.4025,1.3985,1.3984,1.3984,1.3984,0,0,1.404,1.4035,1.4037,1.4036,1.4032,1.4035,1.4042,1.4043,1.4045,1.4044,1.4049,1.4053,1.4045,1.4045,1.4038,1.4044,1.4063,1.4034,1.4034,1.4039,1.408,1.4086,1.4089,1.4057,1.4057,1.4058,1.408,0,1.4062,1.4073,1.4065,1.4077,1.4081,1.4069,1.4075,1.4073,1.4069,1.4072,1.4067,1.407,1.4059,1.4059,1.4065,1.4059,1.4071,1.4058,1.4061,1.4061,1.4061,1.4093,1.4099,1.412,1.4082,1.4083,1.4083,0,1.4087,1.4088,1.4101,1.4097,1.4098,1.4104,1.4104,1.4107,1.4105,1.4102,1.4102,1.4094,1.41,1.4088,1.4097,1.4088,1.4089,1.4087,1.4088,1.4086,1.4072,1.4092,1.4126,1.4129,1.4087,1.4087,1.4087,0,1.411,1.4114,1.4123,1.4122,1.4118,1.4122,1.4121,1.4118,1.4119,1.412,1.4121,1.4122,1.4122,1.4124,1.4116,1.4108,1.4126,1.4113,1.4122,1.4123,1.4125,1.4125,1.4159,1.4128,1.4128,1.4128,1.4128,0,1.4134,1.4142,1.4133,1.4137,1.4146,1.4138,1.4147,1.4144,1.4143,1.4147,1.4137,1.4141,1.4131,1.4134,1.4129,1.4137,1.4137,1.4134,1.4132,1.4134,1.4135,1.4134,1.4132,1.4129,1.4129,1.4129,1.4128,0,1.4159,1.4154,1.4162,1.4158,1.4157,1.4164,1.416,1.4164,1.416,1.4166,1.4167,1.416,1.4164,1.4157,1.4159,1.4155,1.4166,1.4162,1.4167,1.4165,1.4175,1.4174,1.4209,1.4213,1.418,1.4181,1.4181,0,1.4174,1.418,1.4177,1.4179,1.4179,1.4182,1.4184,1.4176,1.4178,1.4178,1.4182,1.4185,1.4186,1.4192,1.4188,1.419,1.4185,1.4198,1.4185,1.4187,1.4184,1.4184,1.4184,1.42,1.42,1.42,1.4201,0,1.4201,1.4198,1.4201,1.4203,1.4205,1.4206,1.4207,1.4209,1.4201,1.4204,1.4208,1.4209,1.4212,1.4215,1.4216,1.4214,1.4206,1.4205,1.4207,1.4208,1.421,1.4209,1.4172,1.4204,1.4203,1.4203,1.4203,1.4203,1.4221,1.4226,1.4225,1.4228,1.4228,1.4229,1.4233,1.423,1.4233,1.4235,1.4231,1.4235,1.4234,1.4235,1.4234,1.4238,1.4232,1.4235,1.4236,1.4237,1.4238,1.4211,1.4238,1.4238,1.4238,1.4238,1.4238,0,1.4246,1.4245,1.4249,1.425,1.4253,1.4247,1.4247,1.425,1.4254,1.4254,1.4256,1.4261,1.4264,1.426,1.4262,1.4266,1.4262,1.4266,1.4265,1.4265,1.4243,1.4241,1.4269,1.4269,1.4269,1.4269,1.4269,1.4269,1.426,1.4268,1.4265,1.4273,1.4272,1.4277,1.4278,1.4279,1.4279,1.4284,1.4287,1.4285,1.4283,1.4286,1.4288,1.4287,1.4288,1.4293,1.4291,1.427,1.4267,1.4264,1.4261,1.4294,1.4294,1.4312,1.4312,1.4313]},{"header":{"parameterUnit":"m.s-1","parameterCategory":1,"la1":30.2991,"la2":30.254,"lo1":-89.0895,"lo2":-89.0444,"dx":0.0017,"dy":0.0017,"nx":28,"ny":28,"refTime":"2022-12-16T15:00:00:Z","depth":0,"parameterNumber":3,"parameterNumberName":"V-component_of_WINDS"},"data":[0,0,0,0,0,0,0,0,0,0,0,0,0,0,0,0,0,0,0,0,0,0,0,0,0,0,0,0,0,0,0,0,0,0,0,0,0,0,0,0,0,0,0,0,0,0,0,0,0,0,0,0,0,0,0,0,0,0,-5.8296,-5.8298,0,-5.8522,-5.8525,-5.8527,-5.8472,-5.8467,-5.8463,-5.8459,-5.8688,-5.8698,-5.8708,0,0,0,0,0,0,0,0,0,0,0,0,0,-5.7813,-5.7822,-5.8296,-5.8298,-5.8301,-5.8522,-5.8525,-5.8528,-5.8472,-5.8467,-5.8462,-5.8457,-5.8685,-5.8697,-5.8709,0,0,0,0,0,0,0,0,0,0,0,0,0,-5.8029,-5.7825,-5.8295,-5.83,-5.8303,-5.8521,-5.8525,-5.8529,-5.8474,-5.8467,-5.846,-5.8454,-5.8681,-5.8696,-5.8711,-5.8937,0,0,-5.8757,-5.8764,0,0,0,0,0,0,0,0,-5.8017,-5.8047,-5.8297,-5.83,-5.8304,-5.8462,-5.8439,-5.8666,-5.8475,-5.8409,-5.8459,-5.8451,-5.8618,-5.8638,-5.8695,-5.8948,-5.8958,-5.8759,-5.8768,-5.8775,-5.8779,0,0,0,0,0,0,0,-5.8002,-5.8037,-5.8385,-5.83,-5.8305,-5.8291,-5.8314,-5.8482,-5.8547,-5.8414,-5.8411,-5.8438,-5.8619,-5.868,-5.87,-5.8961,-5.8758,-5.8772,-5.8781,-5.8787,-5.9412,-5.9419,0,0,0,0,0,0,-5.7985,-5.8025,-5.8378,-5.8392,-5.8141,-5.8305,-5.8331,-5.8418,-5.8546,-5.8559,-5.8444,-5.8435,-5.8657,-5.8682,-5.8708,-5.8982,-5.8775,-5.8789,-5.8798,-5.9404,-5.9413,-5.9421,0,0,0,0,0,0,-5.7975,-5.8017,-5.8369,-5.8208,-5.8251,-5.832,-5.8418,-5.8426,-5.8487,-5.8568,-5.8579,-5.8495,-5.8653,-5.8686,-5.8881,-5.8989,-5.8796,-5.881,-5.9396,-5.9407,-5.9417,-5.9532,0,0,0,0,0,0,-5.7961,-5.8013,-5.8101,-5.821,-5.826,-5.8539,-5.8425,-5.8435,-5.8514,-5.8505,-5.8619,-5.8631,-5.8651,-5.8858,-5.8896,-5.9007,-5.8822,-5.9386,-5.9401,-5.9414,-5.9519,-5.9546,-5.9569,0,0,0,0,0,-5.7944,-5.8123,-5.8105,-5.8148,-5.8371,-5.8546,-5.8574,-5.8593,-5.8523,-5.8611,-5.8663,-5.8628,-5.8971,-5.8879,-5.8921,-5.9038,-5.938,-5.9397,-5.9413,-5.9508,-5.9541,-5.9568,0,0,0,0,0,0,-5.8024,-5.8138,-5.8119,-5.8339,-5.8433,-5.8536,-5.8648,-5.8627,-5.8743,-5.8729,-5.8747,-5.8773,-5.8972,-5.9024,-5.8919,-5.9264,-5.9165,-5.9191,-5.9223,-5.9255,-5.9279,-5.9263,-5.8834,0,0,0,0,0,-5.8067,-5.82,-5.8292,-5.8477,-5.8526,-5.8579,-5.8656,-5.8662,-5.876,-5.8799,-5.8865,-5.8961,-5.909,-5.9175,-5.9298,-5.9526,-5.955,-5.9627,-5.9652,-5.9672,-5.9694,-5.9819,-5.9854,-5.9476,-5.9476,-5.9476,0,0,-5.8158,-5.8236,-5.8319,-5.8496,-5.8569,-5.8706,-5.8613,-5.8761,-5.8863,-5.8821,-5.901,-5.9062,-5.9169,-5.9382,-5.9479,-5.9431,-5.9804,-5.9693,-5.9708,-5.972,-5.984,-5.9876,-5.9907,-5.9487,-5.9485,-5.9484,0,0,-5.8394,-5.8466,-5.8629,-5.8705,-5.8818,-5.8853,-5.8892,-5.8998,-5.9031,-5.9221,-5.9193,-5.9313,-5.9536,-5.9614,-5.9683,-5.9949,-5.9921,-5.9988,-6.0119,-6.024,-6.027,-6.0296,-6.0392,-6.0426,-6.001,-6.001,-6.0011,0,-5.8492,-5.8698,-5.8715,-5.8868,-5.8946,-5.8916,-5.9081,-5.9153,-5.9301,-5.9355,-5.93,-5.9579,-5.965,-5.988,-5.9945,-6.0002,-6.0047,-5.9976,-6.0264,-6.0291,-6.0316,-6.0408,-6.0443,-6.0018,-6.0017,-6.0016,-6.0016,0,-5.8814,-5.8957,-5.9075,-5.922,-5.9311,-5.9469,-5.951,-5.96,-5.9599,-5.9639,-5.9832,-5.9916,-6.0056,-6.0111,-6.011,-6.0342,-6.0309,-6.0259,-6.0161,-6.0359,-6.0446,-6.0481,-6.0029,-6.0026,-6.0024,-6.0022,0,0,-5.9107,-5.9259,-5.9302,-5.9368,-5.949,-5.9601,-5.9757,-5.9896,-5.9973,-6.0076,-6.0207,-6.0396,-6.0351,-6.043,-6.0438,-6.0544,-6.0751,-6.0481,-6.0484,-6.0529,-6.1012,-6.1049,-6.109,-6.0732,-6.0739,-6.0745,-6.1003,0,-5.9354,-5.963,-5.9651,-5.99,-6.0033,-6.0006,-6.0142,-6.0232,-6.0273,-6.0391,-6.0436,-6.0571,-6.05,-6.0548,-6.0652,-6.0704,-6.0848,-6.0685,-6.0855,-6.0861,-6.083,-6.1135,-6.1175,-6.1415,-6.1037,-6.1042,-6.1047,0,-5.968,-5.9793,-6.0056,-6.0161,-6.0217,-6.034,-6.0468,-6.0582,-6.0683,-6.0705,-6.0793,-6.0787,-6.0947,-6.0842,-6.1062,-6.0951,-6.1022,-6.1058,-6.1067,-6.1085,-6.0967,-6.1161,-6.1492,-6.1528,-6.11,-6.1095,-6.1092,0,-5.9868,-6.0087,-6.0273,-6.0329,-6.0456,-6.0542,-6.0599,-6.0694,-6.0776,-6.0888,-6.0941,-6.107,-6.114,-6.124,-6.1268,-6.1189,-6.1489,-6.1386,-6.1512,-6.1512,-6.1577,-6.1573,-6.1925,-6.1621,-6.162,-6.162,-6.1619,0,-6.0143,-6.0305,-6.0359,-6.0474,-6.0654,-6.0676,-6.0854,-6.0905,-6.099,-6.1113,-6.1097,-6.1213,-6.1243,-6.1365,-6.1387,-6.1567,-6.1599,-6.1621,-6.1626,-6.1624,-6.1621,-6.1671,-6.1656,-6.1629,-6.1627,-6.1625,-6.1624,0,-6.0384,-6.0427,-6.0628,-6.0732,-6.0761,-6.089,-6.0979,-6.1089,-6.1127,-6.1284,-6.1322,-6.1383,-6.1526,-6.1564,-6.1733,-6.1749,-6.1961,-6.1949,-6.1928,-6.1928,-6.2052,-6.2041,-6.2449,-6.2505,-6.2164,-6.2167,-6.2169,0,-6.0557,-6.0682,-6.0799,-6.0881,-6.0942,-6.1074,-6.1158,-6.1184,-6.1272,-6.1396,-6.1492,-6.1632,-6.1746,-6.1975,-6.2034,-6.2164,-6.2155,-6.229,-6.2175,-6.2169,-6.2159,-6.2152,-6.2165,-6.2312,-6.2315,-6.2318,-6.2321,0,-6.086,-6.0875,-6.0997,-6.1128,-6.1229,-6.1332,-6.1431,-6.1499,-6.1539,-6.1638,-6.1785,-6.1873,-6.2047,-6.2187,-6.2319,-6.2376,-6.2356,-6.2356,-6.2393,-6.2393,-6.2376,-6.2388,-6.1988,-6.2347,-6.2344,-6.2343,-6.2341,-6.234,-6.1074,-6.1183,-6.1284,-6.142,-6.1498,-6.1591,-6.17,-6.1753,-6.1875,-6.202,-6.2027,-6.2186,-6.2284,-6.2459,-6.2523,-6.2647,-6.2607,-6.2659,-6.2673,-6.2686,-6.2697,-6.2355,-6.2671,-6.267,-6.267,-6.2669,-6.2669,0,-6.1377,-6.144,-6.1566,-6.1706,-6.1813,-6.1785,-6.1894,-6.1985,-6.2126,-6.2219,-6.2332,-6.25,-6.2636,-6.2706,-6.2841,-6.2927,-6.2921,-6.2961,-6.2956,-6.297,-6.2725,-6.2681,-6.2964,-6.2964,-6.2964,-6.2964,-6.2964,-6.2964,-6.1547,-6.1732,-6.1759,-6.1982,-6.2043,-6.22,-6.2264,-6.235,-6.2425,-6.2614,-6.2727,-6.2772,-6.2856,-6.2997,-6.312,-6.3137,-6.3188,-6.3234,-6.3246,-6.3017,-6.2987,-6.2958,-6.2916,-6.3244,-6.3245,-6.348,-6.3483,-6.3484]}]]